Vertical_Velocity
1 -1 1 1 2 -3 -4 -3 -3 -1 3 -1 4 3 3 -1 -1 -4 0 3 0 -0 2 1 -3 -1 -0 -2 -1 -1 -0 3 -0 1 2 -0 0 -0 -0 -1 -2 -1 -1 -1 -0 -1 -1 -2 -0
1 1 -1 1 3 -3 -4 1 -2 2 3 1 3 3 4 -3 -1 -2 1 -0 1 2 4 2 0 -0 0 -0 -2 -0 -1 0 1 -2 1 -0 -1 -0 -1 -0 -0 -1 -1 -1 -1 -0 0 -1 -0
1 3 1 -2 -1 -16 -2 -4 -5 -1 -3 2 3 -0 0 1 -2 2 1 1 0 0 1 -1 0 -1 0 1 1 1 2 -0 1 -1 -0 1 -1 -2 0 -0 -0 -1 -1 -1 -1 0 0 -0 -1
1 2 2 -2 -6 -5 2 4 0 -3 -0 2 -2 2 1 0 1 3 -1 -1 1 -0 -1 1 1 -2 1 2 -0 0 0 2 2 1 -0 2 -0 1 0 1 -0 -1 -1 -1 -1 -1 1 1 -0
2 1 1 -1 -6 -7 -1 3 1 3 1 -1 0 -1 -3 6 1 2 4 13 4 0 -0 2 0 1 -1 0 0 0 1 3 2 -0 0 -0 -0 4 2 1 1 0 -1 -2 -2 -2 -0 1 1
-1 3 -2 -4 -2 2 -0 2 1 -1 4 0 0 -3 4 -3 -5 9 -0 1 8 5 5 -2 0 3 -1 -2 -1 -0 -1 -0 2 2 1 0 1 3 3 1 2 1 -1 0 -2 -2 -2 -0 1
1 1 -2 -1 -5 -2 4 5 -1 0 0 7 -4 -3 0 -2 2 -4 6 5 6 8 5 1 -1 -3 2 -3 -3 -2 1 -0 -1 0 2 2 -1 -0 0 2 1 3 1 -2 0 -1 -2 -2 0
-3 4 -3 -2 -5 -6 -3 3 1 -2 -0 -1 -0 -5 -0 -2 0 -1 -1 6 9 10 9 7 2 1 -2 -1 -1 -2 -3 2 1 -2 -0 5 2 -3 5 -1 -0 1 2 0 -1 -2 -1 -1 -1
-1 -3 -5 -1 -3 -3 -2 1 -0 -0 0 -2 -1 1 -2 -0 1 -1 -1 -4 0 10 -0 1 3 7 0 0 5 -0 0 -0 -0 -2 -3 -1 4 -0 -1 0 -3 -1 2 2 -1 -1 -2 -1 -2
-1 -1 -1 -1 2 -2 -6 -4 -0 -2 -1 1 -1 -1 3 0 -2 1 -1 -2 -5 -0 1 3 -2 -0 3 -2 0 3 1 -0 2 1 -0 -1 0 3 3 1 -1 -3 -1 2 1 0 -2 -2 -1
-4 -5 -2 -0 -0 -3 -4 -4 -5 -4 -5 5 -1 -0 -0 1 1 -4 3 1 -4 -1 -5 1 12 1 0 1 -2 1 6 0 0 2 2 0 -2 2 -0 1 -2 -1 -3 -0 0 -1 -1 -0 -3
-3 2 -3 -2 0 -2 -5 -1 -9 -3 -0 -4 1 -2 1 -1 -3 -5 -0 2 -1 -1 -3 0 5 0 0 6 1 1 -3 10 2 4 -2 1 3 -1 -1 0 2 -0 0 -2 -1 -2 -1 -1 -0
-2 -0 -3 -2 -3 -2 -0 -0 -7 -6 -2 -10 -3 -1 -0 5 3 2 -4 6 4 -1 1 -1 -2 5 -1 2 -1 -1 -2 -1 5 7 4 -4 1 0 -1 0 4 1 -0 2 -1 -2 -1 -1 0
-3 -3 -2 -2 3 -1 -8 -0 -8 12 1 -1 -9 -0 -3 -1 5 0 0 -10 -1 -1 -1 1 -3 -2 0 -1 -2 1 -1 2 4 -1 3 0 -1 3 -1 -1 3 2 -1 0 1 0 -1 -3 -4
-1 -5 -5 -0 -2 -2 -4 -5 -14 -2 -5 -7 -4 -4 1 -3 0 -2 3 -1 -6 -2 1 1 0 -2 -0 1 -3 -5 2 -6 -9 6 -6 4 3 6 11 1 -1 6 5 2 -3 -1 -0 -1 -2
-3 -4 -2 -1 0 -0 -1 -12 -1 2 -1 -0 -9 -7 -6 -3 1 2 5 6 4 2 -4 -5 -4 3 -5 -5 2 2 -4 1 -1 -3 4 -5 12 -10 5 16 -4 5 5 3 2 -5 2 -1 -2
-1 -2 -2 -3 -1 -1 3 -8 -1 0 1 -4 -8 -5 -2 -1 -5 2 -2 1 -1 0 1 -0 -3 -3 -2 -3 2 -1 -3 -7 -1 -3 -2 2 1 -3 30 10 15 2 8 4 7 -3 0 1 0
-2 -3 -4 -5 0 6 -5 -14 -10 -0 -1 -5 -7 -4 -2 -1 4 2 1 -6 2 -1 -2 1 -0 -0 1 -4 -5 1 0 -4 -1 1 2 -4 3 26 149 11 13 -1 -5 6 5 5 0 2 1
0 -2 -2 1 2 -4 -0 -7 -9 4 -2 -2 -4 -0 -3 -4 -1 -2 3 6 -4 -3 -3 -3 -4 -2 -5 -5 -3 -3 -2 2 -9 -4 8 4 2 1 31 -4 10 -23 6 -5 7 8 4 0 3
0 -2 -3 -8 3 6 1 -15 -6 2 -1 -0 1 0 -2 -3 -7 -4 0 1 0 2 -5 -5 -2 -4 -7 -4 1 -7 -3 -4 1 -2 7 7 6 6 -11 -12 11 -16 -4 3 -1 -9 -1 6 -2
-1 -4 -4 -2 -0 -1 -3 -16 -6 4 0 5 3 -2 -3 -3 -5 -4 -1 -1 0 1 -1 -2 4 -1 0 -1 -2 -1 -3 -10 2 -5 3 5 -1 6 -5 15 -1 -12 -2 4 3 8 -1 7 7
-4 -1 2 -1 2 -1 2 -12 -5 -5 -1 -0 -1 -5 -1 -2 -4 -4 -2 -1 -3 -1 3 4 2 -4 -4 -1 -2 2 -10 -3 6 -1 5 2 -2 9 -3 18 7 7 3 5 5 1 2 7 2
-8 2 0 1 2 9 -2 11 -10 1 -3 -1 -0 -1 -3 2 -1 2 3 2 7 1 -2 1 -3 1 -2 -2 -1 -2 1 -4 1 -1 14 9 12 7 19 12 0 -10 -1 5 4 4 0 3 4
0 -7 -1 3 5 6 0 3 -1 -3 -11 -10 0 1 0 -5 -1 -2 -3 -13 -5 4 16 9 11 3 -8 -12 -3 -0 -4 -4 0 -2 -2 4 11 7 11 15 -12 -1 9 16 13 17 10 2 3
1 2 -5 -4 1 -4 -1 7 -2 5 -0 3 0 -0 2 -2 2 -2 0 13 1 -2 10 13 3 -6 -8 -6 -1 -5 -1 10 1 -0 16 7 -4 -8 23 0 -8 8 6 6 14 29 6 0 4
6 -2 2 1 -1 -2 1 -0 -3 9 5 12 -7 1 -2 0 11 -7 -6 -3 -3 4 -10 -11 1 -9 -7 2 19 23 32 13 20 20 21 6 19 4 1 -2 24 11 9 12 -3 7 5 1 1
5 1 4 3 0 3 -3 -0 0 8 4 4 -11 -14 4 0 31 26 23 16 -3 -3 -4 10 -2 18 8 7 -9 -5 9 20 37 19 17 -2 -3 -4 -13 -3 -1 -9 -5 -5 -9 -8 -2 1 -4
-1 5 3 1 1 -1 -2 3 2 2 2 9 3 3 8 -6 0 1 -4 15 22 21 23 9 31 19 -8 7 3 -3 -6 -13 -11 -9 -4 -5 -1 3 1 4 -2 -3 -5 -3 -3 4 3 -3 -2
-0 2 2 2 2 2 0 2 6 5 8 11 6 4 7 6 5 -0 3 4 9 -6 -3 -8 -4 -2 6 -2 -3 -4 2 -1 -1 0 4 -4 -3 3 3 -1 -0 -5 -7 -6 -1 4 -3 -4 1
-2 -1 2 0 -1 -0 -1 4 7 4 9 11 7 -2 -7 -6 -9 -3 -1 1 0 -2 -1 -2 -5 -10 -7 -3 1 3 2 -1 -8 -7 0 1 3 3 -4 -3 -1 1 2 4 -3 -1 -2 -4 -3
Height
3109 3111 3113 3117 3124 3119 3118 3120 3120 3123 3124 3126 3130 3132 3134 3136 3138 3142 3140 3141 3143 3145 3146 3147 3148 3149 3149 3150 3150 3151 3152 3153 3154 3154 3156 3157 3158 3160 3161 3163 3164 3165 3165 3165 3165 3165 3165 3164 3164
3108 3110 3112 3114 3116 3115 3115 3116 3120 3124 3123 3124 3126 3128 3130 3132 3135 3137 3138 3140 3142 3143 3144 3145 3146 3147 3148 3148 3150 3150 3151 3152 3153 3154 3156 3157 3158 3160 3162 3163 3164 3165 3165 3165 3165 3165 3166 3165 3165
3106 3107 3111 3112 3111 3113 3112 3114 3117 3119 3122 3123 3124 3126 3128 3130 3133 3134 3137 3138 3140 3141 3142 3144 3145 3145 3146 3147 3148 3149 3150 3151 3152 3154 3155 3157 3158 3160 3162 3164 3164 3165 3165 3166 3166 3166 3166 3167 3166
3103 3106 3107 3105 3106 3110 3112 3113 3115 3116 3117 3119 3119 3124 3126 3127 3129 3131 3134 3136 3137 3138 3140 3141 3143 3144 3144 3144 3146 3148 3149 3150 3151 3153 3155 3156 3158 3159 3161 3163 3164 3165 3165 3166 3166 3166 3167 3168 3168
3101 3102 3102 3099 3101 3107 3110 3112 3113 3115 3115 3116 3117 3118 3122 3123 3125 3128 3130 3132 3135 3136 3136 3138 3139 3141 3143 3144 3144 3146 3147 3149 3150 3151 3154 3156 3157 3158 3160 3162 3164 3165 3165 3166 3166 3167 3167 3168 3169
3098 3099 3098 3096 3098 3103 3106 3109 3109 3110 3110 3113 3114 3116 3119 3117 3119 3122 3126 3128 3128 3131 3133 3135 3136 3138 3140 3143 3144 3144 3146 3147 3148 3149 3152 3155 3156 3158 3159 3161 3163 3164 3165 3166 3166 3167 3168 3169 3169
3094 3096 3093 3094 3096 3099 3103 3105 3104 3105 3108 3109 3109 3112 3114 3115 3117 3117 3120 3123 3125 3127 3128 3130 3133 3136 3137 3139 3142 3144 3145 3146 3147 3148 3150 3153 3155 3157 3158 3160 3161 3163 3165 3165 3166 3167 3168 3168 3169
3091 3093 3089 3090 3092 3095 3099 3100 3100 3100 3104 3105 3104 3106 3110 3112 3114 3115 3115 3119 3121 3123 3124 3126 3128 3132 3133 3134 3137 3140 3142 3144 3145 3146 3147 3150 3152 3155 3156 3158 3160 3162 3164 3165 3165 3166 3167 3168 3169
3089 3088 3086 3087 3089 3091 3094 3095 3095 3095 3096 3099 3101 3101 3105 3108 3110 3111 3111 3113 3117 3117 3120 3122 3124 3127 3129 3131 3133 3137 3139 3140 3142 3144 3146 3148 3148 3151 3154 3157 3158 3160 3162 3164 3164 3165 3167 3167 3168
3084 3081 3084 3087 3087 3086 3089 3088 3090 3090 3090 3091 3094 3097 3100 3102 3105 3107 3108 3108 3110 3112 3116 3119 3120 3123 3125 3127 3130 3133 3135 3137 3138 3140 3143 3145 3146 3148 3153 3155 3157 3158 3160 3162 3163 3164 3166 3167 3168
3077 3077 3081 3083 3083 3082 3082 3083 3084 3082 3082 3085 3089 3091 3093 3095 3097 3101 3102 3104 3105 3107 3110 3112 3116 3119 3122 3124 3127 3130 3132 3133 3136 3136 3137 3141 3143 3145 3148 3152 3154 3156 3158 3160 3161 3163 3165 3166 3166
3074 3075 3076 3077 3080 3076 3076 3075 3075 3075 3075 3079 3081 3085 3086 3088 3092 3095 3097 3098 3100 3102 3104 3108 3111 3114 3116 3119 3122 3124 3127 3128 3132 3134 3134 3137 3140 3142 3145 3149 3152 3153 3156 3158 3160 3161 3163 3164 3165
3071 3072 3073 3072 3072 3072 3070 3068 3068 3065 3069 3074 3074 3073 3074 3076 3078 3084 3089 3090 3092 3097 3099 3102 3105 3108 3111 3114 3116 3119 3122 3125 3127 3130 3132 3133 3135 3139 3142 3145 3147 3150 3153 3155 3157 3159 3161 3162 3163
3067 3067 3069 3068 3069 3064 3064 3064 3060 3064 3062 3061 3062 3064 3064 3066 3069 3072 3078 3085 3087 3091 3094 3097 3099 3102 3105 3109 3112 3115 3119 3121 3122 3125 3128 3130 3131 3133 3137 3140 3143 3146 3149 3151 3153 3156 3158 3159 3160
3064 3063 3063 3065 3064 3063 3060 3056 3059 3061 3058 3058 3056 3055 3055 3054 3058 3061 3068 3073 3080 3083 3086 3089 3094 3097 3100 3104 3107 3110 3113 3115 3118 3121 3124 3125 3125 3127 3131 3133 3138 3142 3145 3147 3148 3152 3154 3156 3158
3062 3062 3062 3062 3061 3062 3058 3046 3057 3056 3053 3051 3050 3050 3048 3049 3048 3051 3057 3062 3069 3073 3078 3084 3088 3091 3095 3098 3102 3105 3108 3108 3111 3114 3117 3118 3118 3118 3126 3126 3131 3135 3139 3142 3145 3148 3151 3153 3155
3060 3060 3060 3059 3059 3058 3055 3044 3050 3051 3046 3043 3042 3041 3040 3041 3041 3041 3044 3051 3058 3064 3070 3076 3081 3086 3089 3093 3095 3098 3101 3103 3103 3106 3110 3111 3114 3114 3117 3119 3122 3130 3135 3138 3142 3144 3146 3149 3151
3059 3059 3057 3056 3057 3053 3048 3039 3042 3044 3040 3037 3035 3034 3033 3032 3034 3035 3035 3040 3049 3055 3062 3067 3072 3077 3082 3086 3089 3090 3092 3096 3097 3098 3100 3105 3106 3107 3092 3109 3114 3119 3130 3135 3137 3140 3142 3146 3147
3057 3057 3055 3053 3054 3048 3044 3036 3036 3037 3033 3031 3030 3028 3025 3025 3025 3025 3027 3031 3038 3046 3053 3060 3065 3071 3075 3079 3082 3083 3084 3086 3086 3088 3090 3093 3097 3103 3098 3100 3106 3111 3123 3129 3133 3138 3139 3142 3142
3055 3054 3052 3051 3050 3046 3039 3030 3031 3029 3027 3025 3023 3022 3021 3020 3018 3018 3019 3024 3030 3038 3047 3054 3060 3064 3069 3073 3074 3074 3076 3078 3076 3077 3079 3084 3088 3096 3098 3102 3103 3109 3118 3121 3127 3132 3134 3137 3138
3054 3053 3051 3050 3045 3040 3035 3022 3024 3024 3022 3021 3019 3018 3018 3016 3014 3013 3016 3019 3024 3032 3040 3048 3053 3058 3062 3066 3066 3068 3067 3073 3070 3072 3075 3078 3085 3089 3091 3096 3099 3106 3112 3117 3123 3127 3129 3132 3132
3051 3050 3049 3047 3045 3041 3038 3024 3017 3016 3014 3014 3014 3015 3014 3014 3013 3013 3014 3016 3021 3028 3035 3041 3046 3051 3056 3060 3061 3062 3063 3066 3070 3070 3071 3076 3081 3084 3087 3092 3095 3102 3110 3115 3120 3121 3123 3125 3126
3049 3048 3045 3043 3041 3039 3034 3033 3013 3011 3011 3009 3009 3009 3011 3010 3010 3010 3011 3013 3017 3024 3029 3035 3040 3046 3050 3053 3054 3055 3058 3061 3063 3065 3068 3069 3073 3079 3083 3088 3091 3099 3105 3110 3113 3116 3118 3118 3119
3048 3045 3040 3036 3036 3033 3029 3028 3013 3013 3009 3002 3001 3006 3007 3008 3008 3008 3008 3010 3013 3018 3023 3028 3034 3040 3044 3047 3047 3049 3053 3055 3056 3061 3063 3067 3071 3075 3079 3082 3088 3097 3101 3105 3108 3108 3109 3110 3112
3045 3045 3039 3037 3035 3030 3027 3024 3019 3011 3007 3004 3003 3005 3006 3005 3003 3002 3005 3008 3011 3015 3019 3023 3029 3035 3039 3041 3042 3045 3048 3048 3052 3055 3059 3064 3068 3071 3074 3078 3083 3088 3093 3097 3098 3099 3104 3105 3107
3043 3044 3043 3039 3036 3029 3026 3025 3020 3012 3010 3006 3006 3006 3007 3002 2998 2999 3000 3003 3008 3012 3015 3020 3027 3031 3034 3036 3039 3041 3040 3044 3049 3052 3056 3060 3064 3067 3071 3074 3080 3082 3086 3088 3091 3092 3095 3097 3098
3040 3042 3040 3036 3032 3030 3027 3025 3021 3014 3012 3011 3008 3008 3007 3003 2999 2999 2999 2996 3001 3005 3011 3016 3022 3028 3031 3034 3038 3039 3044 3045 3049 3053 3056 3060 3061 3064 3069 3073 3076 3078 3082 3085 3087 3087 3088 3089 3089
3040 3040 3039 3036 3033 3027 3026 3026 3026 3018 3014 3013 3012 3010 3008 3008 3004 3002 3001 3000 3003 3005 3009 3015 3018 3024 3030 3035 3039 3041 3044 3046 3049 3052 3055 3059 3062 3065 3068 3070 3071 3074 3077 3079 3082 3080 3079 3079 3081
3041 3039 3038 3037 3036 3033 3031 3032 3029 3023 3020 3017 3015 3014 3014 3013 3012 3011 3010 3008 3007 3010 3013 3019 3023 3027 3031 3036 3040 3043 3047 3049 3052 3054 3057 3060 3061 3063 3066 3069 3072 3073 3075 3076 3076 3075 3073 3073 3073
3040 3038 3038 3037 3037 3035 3036 3039 3034 3029 3026 3024 3022 3021 3021 3020 3020 3020 3019 3020 3021 3022 3025 3028 3032 3033 3036 3039 3045 3048 3050 3052 3054 3057 3059 3060 3061 3063 3065 3067 3069 3070 3070 3070 3070 3068 3068 3067 3067